Location: Cartignies
(50.0929°N, 3.8447°E)
Time: 14:50:21
(UTC+00:00)

Cosmos 1821 Rocket - Pass Details

Date: 12 January 2026
Orbit: 943 x 1004 km, 82.9° (Epoch: 15 February)

Event Time Altitude Azimuth Distance (km) Brightness Sun altitude
Rises 17:13:54 0° 354° (N) 3,698 6.9 -10.4°
Reaches altitude 10° 17:16:39 10° 2° (N) 2,736 6.1 -10.8°
Maximum altitude 17:22:28 39° 70° (ENE) 1,420 4.4 -11.7°
Drops below altitude 10° 17:28:09 10° 138° (SE) 2,682 6.1 -12.5°
Sets 17:30:49 0° 146° (SSE) 3,616 6.8 -12.9°
